TimeEST,TemperatureF,Dew PointF,Humidity,Sea Level PressureIn,VisibilityMPH,Wind Direction,Wind SpeedMPH,Gust SpeedMPH,PrecipitationIn,Events,Conditions,WindDirDegrees,DateUTC
12:53 AM,28.9,19.9,69,30.16,10.0,Calm,Calm,-,N/A,,Clear,0,2012-11-25 05:53:00
1:53 AM,27.0,19.9,75,30.15,10.0,Calm,Calm,-,N/A,,Clear,0,2012-11-25 06:53:00
2:53 AM,27.0,21.0,78,30.16,10.0,Calm,Calm,-,N/A,,Clear,0,2012-11-25 07:53:00
3:53 AM,27.0,21.0,78,30.16,10.0,Calm,Calm,-,N/A,,Clear,0,2012-11-25 08:53:00
4:53 AM,26.1,19.9,78,30.17,10.0,Calm,Calm,-,N/A,,Clear,0,2012-11-25 09:53:00
5:53 AM,25.0,19.0,78,30.18,10.0,Calm,Calm,-,N/A,,Clear,0,2012-11-25 10:53:00
6:53 AM,25.0,19.9,81,30.19,10.0,Calm,Calm,-,N/A,,Clear,0,2012-11-25 11:53:00
7:53 AM,28.0,21.9,78,30.19,10.0,Calm,Calm,-,N/A,,Clear,0,2012-11-25 12:53:00
8:53 AM,32.0,24.1,73,30.20,10.0,Calm,Calm,-,N/A,,Clear,0,2012-11-25 13:53:00
9:53 AM,35.1,24.1,64,30.19,10.0,SSW,3.5,-,N/A,,Partly Cloudy,210,2012-11-25 14:53:00
10:53 AM,39.9,24.1,53,30.17,10.0,SSW,3.5,-,N/A,,Partly Cloudy,210,2012-11-25 15:53:00
11:53 AM,46.9,19.9,34,30.14,10.0,WSW,10.4,-,N/A,,Clear,240,2012-11-25 16:53:00
12:53 PM,50.0,15.1,25,30.10,10.0,SSW,11.5,-,N/A,,Clear,210,2012-11-25 17:53:00
1:53 PM,52.0,9.0,18,30.08,10.0,SW,16.1,24.2,N/A,,Clear,220,2012-11-25 18:53:00
2:53 PM,54.0,8.1,16,30.05,10.0,SW,18.4,-,N/A,,Clear,220,2012-11-25 19:53:00
3:53 PM,54.0,10.9,18,30.04,10.0,SW,11.5,-,N/A,,Clear,230,2012-11-25 20:53:00
4:53 PM,52.0,12.0,20,30.04,10.0,WSW,11.5,-,N/A,,Clear,240,2012-11-25 21:53:00
5:53 PM,45.0,14.0,29,30.06,10.0,WSW,6.9,-,N/A,,Clear,240,2012-11-25 22:53:00
6:53 PM,46.0,14.0,28,30.08,10.0,Calm,Calm,-,N/A,,Clear,0,2012-11-25 23:53:00
7:53 PM,45.0,15.1,30,30.09,10.0,SW,5.8,-,N/A,,Clear,230,2012-11-26 00:53:00
8:53 PM,43.0,17.1,35,30.10,10.0,Calm,Calm,-,N/A,,Clear,0,2012-11-26 01:53:00
9:53 PM,44.1,16.0,32,30.10,10.0,WSW,5.8,-,N/A,,Clear,250,2012-11-26 02:53:00
10:53 PM,42.1,16.0,35,30.11,10.0,WSW,3.5,-,N/A,,Clear,240,2012-11-26 03:53:00
11:53 PM,41.0,17.1,38,30.10,10.0,SW,5.8,-,N/A,,Clear,230,2012-11-26 04:53:00